Location: Omaha
(41.2590°N, 95.9380°W)
Time: 08:38:43
(UTC-06:00)

Vanguard 1 Rocket - All Passes

Search period start: 17 January 2018 00:00
Search period end: 27 January 2018 00:00
Orbit: 656 x 4222 km, 34.3° (Epoch: 16 January)

Date Brightness Start Highest point End Pass type
(mag) Time Alt. Az. Time Alt. Az. Time Alt. Az.
17 Jan - 06:24:48 10° SSW 06:34:29 23° SSE 06:40:44 10° ESE visible
17 Jan - 08:51:53 10° WSW 09:00:24 40° S 09:05:33 10° ESE daylight
17 Jan - 11:19:39 10° WSW 11:25:02 37° S 11:29:09 10° ESE daylight
17 Jan - 13:47:02 10° SW 13:49:03 13° SSW 13:51:07 10° S daylight
18 Jan - 05:13:22 10° S 05:22:33 18° SSE 05:29:01 10° ESE visible
18 Jan - 07:38:57 10° SW 07:49:16 36° SSE 07:55:16 10° ESE daylight
18 Jan - 10:07:23 10° WSW 10:14:29 44° S 10:19:04 10° ESE daylight
18 Jan - 12:34:51 10° WSW 12:38:37 22° SSW 12:42:02 10° SSE daylight
19 Jan - 04:04:09 10° S 04:10:11 13° SSE 04:15:09 10° SE visible
19 Jan - 06:25:58 10° SW 06:37:44 31° SSE 06:44:42 10° ESE visible
19 Jan - 08:54:31 10° WSW 09:03:40 46° S 09:08:59 10° ESE daylight
19 Jan - 11:22:50 10° W 11:28:13 33° SSW 11:32:18 10° SE daylight
20 Jan - 05:13:27 10° SSW 05:25:46 25° SSE 05:33:34 10° ESE visible
20 Jan - 07:41:08 10° SW 07:52:31 43° S 07:58:48 10° E daylight
20 Jan - 10:10:22 10° WSW 10:17:42 44° S 10:22:23 10° ESE daylight
20 Jan - 12:38:33 10° WSW 12:41:41 17° SSW 12:44:32 10° SSE daylight
21 Jan - 04:02:06 10° S 04:13:21 19° SSE 04:21:21 10° ESE visible
21 Jan - 06:27:34 10° SW 06:40:58 38° SSE 06:48:24 10° E visible
21 Jan - 08:57:14 10° WSW 09:06:54 50° S 09:12:22 10° ESE daylight
21 Jan - 11:26:05 10° W 11:31:21 28° SSW 11:35:18 10° SE daylight
22 Jan - 02:53:46 10° SSE 03:00:35 13° SE 03:06:19 10° ESE visible
22 Jan - 05:14:15 10° SSW 05:28:56 32° SSE 05:37:35 10° E visible
22 Jan - 07:43:31 10° WSW 07:55:44 50° S 08:02:15 10° E daylight
22 Jan - 10:13:22 10° W 10:20:54 42° SSW 10:25:37 10° SE daylight
22 Jan - 12:42:50 10° WSW 12:44:40 12° SW 12:46:22 10° SSW daylight
23 Jan - 04:01:45 10° SSW 04:16:27 26° SSE 04:26:01 10° ESE visible
23 Jan - 06:29:27 10° SW 06:44:08 46° SSE 06:51:57 10° E visible
23 Jan - 09:00:02 10° WSW 09:10:06 52° S 09:15:43 10° ESE daylight
23 Jan - 11:29:26 10° W 11:34:23 23° SSW 11:38:10 10° SSE daylight
24 Jan - 02:50:56 10° S 03:03:36 19° SE 03:13:01 10° ESE visible
24 Jan - 05:15:30 10° SW 05:32:03 40° SSE 05:41:18 10° E visible
24 Jan - 07:46:02 10° WSW 07:58:55 55° S 08:05:40 10° ESE daylight
24 Jan - 10:16:26 10° W 10:24:00 38° SSW 10:28:47 10° SE daylight
25 Jan - 01:44:38 10° SSE 01:50:30 12° SE 01:55:46 10° SE visible
25 Jan - 04:02:11 10° SSW 04:19:29 33° SSE 04:30:05 10° E visible
25 Jan - 06:31:34 10° WSW 06:47:17 52° S 06:55:24 10° E visible
25 Jan - 09:02:53 10° W 09:13:16 51° SSW 09:19:00 10° ESE daylight
25 Jan - 11:32:58 10° WSW 11:37:19 19° SW 11:40:44 10° S daylight
26 Jan - 02:50:08 10° SSW 03:06:32 25° SSE 03:17:53 10° E visible
26 Jan - 05:17:06 10° SW 05:35:07 47° SSE 05:44:51 10° E visible
26 Jan - 07:48:38 10° WSW 08:02:05 57° S 08:09:01 10° ESE daylight
26 Jan - 10:19:31 10° W 10:27:02 33° SSW 10:31:49 10° SE daylight
